EST,Max TemperatureF,Mean TemperatureF,Min TemperatureF,Max Dew PointF,MeanDew PointF,Min DewpointF,Max Humidity, Mean Humidity, Min Humidity, Max Sea Level PressureIn, Mean Sea Level PressureIn, Min Sea Level PressureIn, Max VisibilityMiles, Mean VisibilityMiles, Min VisibilityMiles, Max Wind SpeedMPH, Mean Wind SpeedMPH, Max Gust SpeedMPH,PrecipitationIn, CloudCover, Events, WindDirDegrees
2013-2-1,17,12,8,12,7,1,90,78,64,30.20,30.11,29.88,10,8,0,15,9,22,0.00,7,Snow,246
2013-2-2,21,12,3,17,10,1,95,82,73,30.14,30.00,29.93,10,6,1,12,8,16,0.00,7,Snow,252
2013-2-3,21,10,-1,17,9,-4,94,86,69,29.97,29.90,29.81,10,6,1,17,3,25,0.00,7,Snow,258
2013-2-4,21,17,11,17,14,10,94,88,82,29.98,29.90,29.84,10,5,1,6,0,,0.00,7,Snow,350
2013-2-5,28,13,-2,26,14,-5,96,88,73,29.95,29.84,29.75,10,6,2,13,4,18,0.00,5,Snow,225
2013-2-6,31,17,3,21,14,1,98,75,56,30.22,30.16,29.97,10,9,1,10,4,17,0.00,3,Snow,177
2013-2-7,36,30,25,29,23,17,98,77,69,30.20,30.04,29.81,10,9,1,10,5,,0.00,8,Rain,104
2013-2-8,29,20,10,27,20,9,98,83,62,30.33,30.07,29.80,10,8,2,20,8,26,0.01,5,Rain,353
2013-2-9,31,14,-2,21,10,-5,96,80,56,30.40,30.32,30.19,10,7,0,12,2,,0.00,2,Fog-Snow,150
2013-2-10,41,30,20,38,25,17,95,81,64,30.18,29.93,29.60,10,10,4,17,6,24,0.09,5,Rain,136
2013-2-11,43,36,30,42,30,23,97,81,69,29.86,29.64,29.50,10,9,3,25,15,39,0.05,8,Rain,230
2013-2-12,29,28,26,25,23,21,84,79,75,30.02,29.95,29.86,10,10,7,18,10,29,0.00,8,,255
2013-2-13,40,30,21,27,24,20,97,80,57,29.90,29.77,29.69,10,9,5,10,5,,0.00,4,,224
2013-2-14,41,32,25,33,30,24,95,87,74,29.86,29.70,29.62,10,7,3,21,7,32,0.00,7,Rain,218
2013-2-15,30,24,19,26,16,13,86,70,54,30.11,30.02,29.86,10,10,10,13,7,17,0.00,7,Rain-Snow,296
2013-2-16,23,18,12,17,13,6,92,79,51,30.08,30.02,29.98,10,9,2,13,4,18,0.00,6,Rain-Snow,272
2013-2-17,26,17,9,11,8,5,92,71,45,30.17,30.12,30.05,10,10,7,9,1,,0.00,3,Snow,293
2013-2-18,45,32,18,41,24,10,93,69,53,30.12,29.83,29.49,10,10,7,20,9,25,0.02,3,Rain,153
2013-2-19,43,29,16,40,22,11,94,85,73,29.93,29.64,29.36,10,7,1,25,18,34,0.09,8,Rain-Snow,243
2013-2-20,21,18,14,15,12,8,85,74,65,30.23,30.11,29.93,10,10,4,17,12,26,0.00,8,Snow,292
2013-2-21,25,22,20,18,16,14,82,77,72,30.34,30.27,30.18,10,10,7,14,8,21,0.00,6,Rain-Snow,27
2013-2-22,32,26,20,32,24,15,100,90,79,30.17,29.94,29.83,10,6,0,15,10,23,0.00,8,Rain-Snow,129
2013-2-23,30,28,24,28,22,19,90,80,70,29.89,29.86,29.83,10,9,3,14,10,21,0.05,8,Rain,227
2013-2-24,36,29,23,26,23,20,92,78,62,30.12,30.00,29.87,10,9,3,12,6,18,0.01,8,Rain,254
2013-2-25,38,26,14,27,22,14,100,81,55,30.20,30.13,30.05,10,7,0,7,1,,0.00,2,Fog,80
2013-2-26,33,29,26,32,26,21,100,86,72,30.08,29.76,29.47,10,7,1,22,8,28,0.24,4,Rain,59
2013-2-27,36,34,32,34,32,32,100,98,89,29.55,29.49,29.43,7,3,1,5,1,,0.34,8,Rain-Snow,335
2013-2-28,35,32,29,32,30,24,99,88,76,29.96,29.75,29.55,10,8,2,14,8,20,0.00,8,Snow,346